Orbital Elements at Epoch 2459200.5 (2020-Dec-17.0) TDB
Reference: JPL 7 (heliocentric ecliptic J2000)
Element | Value | Uncertainty (1-sigma) | Units |
e | .5761904133027179 | 0.00039535 | |
a | 1.255142385816985 | 0.00075141 | au |
q | .5319413757793369 | 0.00017781 | au |
i | 13.12156506292465 | 0.010472 | deg |
node | 119.5646523401618 | 9.0992e-05 | deg |
peri | 105.0659596262426 | 0.0035795 | deg |
M | 35.09177467570547 | 1.318 | deg |
tp | 2459150.434247057245 (2020-Oct-27.93424706) | 1.8354 | TDB |
period | 513.6152624355558 1.41 | 0.46123 0.001263 | d yr |
n | .7009137506796147 | 0.00062942 | deg/d |
Q | 1.978343395854633 | 0.0011844 | au |
|
| | Orbit Determination Parameters
Additional Information
|